This is the latest recevied weather packets stored in our database for station/object KD5VOO. If no packets are shown the sender has not sent any weather packets the latest 10 day(s).
| Time | Temp. | Humidity | Pressure | Rain* | Wind** | Luminosity | Snow |
|---|---|---|---|---|---|---|---|
| 1777650009 | 17.22° C | 78% | 1011.5 hPa | 0 mm | - | 27 W/m² | - |
| 1777649707 | 17.22° C | 78% | 1011.5 hPa | 0 mm | - | 22 W/m² | - |
| 1777649402 | 17.22° C | 78% | 1011.5 hPa | 0 mm | - | 20 W/m² | - |
| 1777649100 | 17.22° C | 78% | 1011.2 hPa | 0 mm | - | 21 W/m² | - |
| 1777648797 | 17.22° C | 78% | 1011.5 hPa | 0 mm | - | 17 W/m² | - |
| 1777648494 | 17.22° C | 78% | 1011.5 hPa | 0 mm | - | 23 W/m² | - |
| 1777648190 | 17.22° C | 78% | 1011.2 hPa | 0 mm | - | 11 W/m² | - |
| 1777647886 | 17.22° C | 78% | 1011.2 hPa | 0 mm | - | 17 W/m² | - |
| 1777647279 | 17.22° C | 78% | 1010.9 hPa | 0 mm | - | 14 W/m² | - |
| 1777646368 | 17.22° C | 78% | 1010.2 hPa | 0 mm | - | 22 W/m² | - |
| 1777646065 | 17.22° C | 78% | 1010.2 hPa | 0 mm | - | 24 W/m² | - |
| 1777645761 | 17.22° C | 78% | 1010.5 hPa | 0 mm | - | 19 W/m² | - |
| 1777645459 | 17.22° C | 78% | 1010.2 hPa | 0 mm | - | 18 W/m² | - |
| 1777645154 | 17.22° C | 78% | 1010.5 hPa | 0 mm | - | 21 W/m² | - |
| 1777644851 | 17.22° C | 78% | 1010.2 hPa | 0 mm | - | 19 W/m² | - |
| 1777644549 | 17.22° C | 79% | 1010.2 hPa | 0 mm | - | 22 W/m² | - |
| 1777644244 | 17.22° C | 78% | 1010.2 hPa | 0 mm | - | 24 W/m² | - |
| 1777643941 | 17.22° C | 79% | 1010.2 hPa | 0 mm | - | 30 W/m² | - |
| 1777643639 | 17.22° C | 79% | 1009.9 hPa | 0 mm | - | 25 W/m² | - |
| 1777643335 | 17.22° C | 79% | 1009.9 hPa | 0 mm | - | 20 W/m² | - |
| 1777642728 | 17.22° C | 79% | 1009.9 hPa | 0 mm | - | 32 W/m² | - |
| 1777642426 | 17.22° C | 79% | 1009.9 hPa | 0 mm | - | 31 W/m² | - |
| 1777642122 | 17.22° C | 79% | 1009.5 hPa | 0 mm | - | 31 W/m² | - |
| 1777641818 | 17.22° C | 79% | 1009.5 hPa | 0 mm | - | 25 W/m² | - |
| 1777641514 | 17.22° C | 79% | 1009.2 hPa | 0 mm | - | 13 W/m² | - |
* Rain latest hour (hover to see other rain measurements)
** Current wind speed in m/s (hover to see current wind gust speed)